KC7UNY-13 Weather Reports


Display with metric or nautical units.
time (UTC)temp
F
wind
direction
speed
MPH
gust
MPH
rain 1hr
in
rain 24hr
in
rain mn
in
humidity
%
barometer
mb
20260507182020 87 169 2.0 3.0 0.00 0.00 0.00 17 1012.9
20260507181518 87 342 2.0 2.0 0.00 0.00 0.00 18 1012.9
20260507181013 87 65 1.0 1.0 0.00 0.00 0.00 17 1013.0
20260507180510 88 101 2.0 2.0 0.00 0.00 0.00 17 1013.2
20260507180007 87 65 1.0 1.0 0.00 0.00 0.00 18 1013.0
20260507175503 87 180 3.0 4.0 0.00 0.00 0.00 18 1013.2
20260507175000 86 32 0.0 1.0 0.00 0.00 0.00 18 1013.2
20260507174458 87 43 0.0 0.0 0.00 0.00 0.00 19 1013.4
20260507173955 86 88 1.0 2.0 0.00 0.00 0.00 19 1013.5
20260507173452 87 14 1.0 1.0 0.00 0.00 0.00 20 1013.6
20260507172949 86 58 0.0 0.0 0.00 0.00 0.00 20 1013.5
20260507172445 85 346 2.0 2.0 0.00 0.00 0.00 20 1013.6
20260507171942 85 36 0.0 1.0 0.00 0.00 0.00 23 1013.5
20260507171438 83 30 0.0 0.0 0.00 0.00 0.00 21 1013.5
20260507170936 83 42 0.0 1.0 0.00 0.00 0.00 21 1013.6
20260507170432 83 279 1.0 1.0 0.00 0.00 0.00 22 1013.8
20260507165928 85 56 1.0 1.0 0.00 0.00 0.00 22 1013.7
20260507165424 84 35 0.0 1.0 0.00 0.00 0.00 25 1013.6
20260507164920 83 82 1.0 1.0 0.00 0.00 0.00 23 1013.7
20260507164417 83 351 2.0 2.0 0.00 0.00 0.00 24 1013.8
20260507163914 82 11 2.0 2.0 0.00 0.00 0.00 27 1013.8
20260507163412 83 39 0.0 0.0 0.00 0.00 0.00 28 1013.8
20260507162908 81 40 0.0 0.0 0.00 0.00 0.00 27 1013.8
20260507162403 80 42 0.0 0.0 0.00 0.00 0.00 28 1014.1
20260507161901 80 21 1.0 1.0 0.00 0.00 0.00 28 1013.9
20260507161357 81 38 0.0 1.0 0.00 0.00 0.00 30 1014.0
20260507160854 81 38 0.0 0.0 0.00 0.00 0.00 28 1014.2
20260507160349 81 49 0.0 1.0 0.00 0.00 0.00 27 1014.1
20260507155846 79 40 0.0 0.0 0.00 0.00 0.00 30 1014.2
20260507155342 82 17 0.0 1.0 0.00 0.00 0.00 28 1014.1
20260507154839 80 44 0.0 0.0 0.00 0.00 0.00 29 1014.1
20260507154336 78 39 0.0 0.0 0.00 0.00 0.00 30 1014.1
20260507153833 78 75 1.0 1.0 0.00 0.00 0.00 30 1014.1
20260507153330 77 45 1.0 1.0 0.00 0.00 0.00 31 1014.3
20260507152826 76 114 0.0 1.0 0.00 0.00 0.00 31 1014.1
20260507152323 75 62 1.0 1.0 0.00 0.00 0.00 32 1014.1
20260507151819 75 39 0.0 0.0 0.00 0.00 0.00 32 1014.1
20260507151315 75 37 0.0 1.0 0.00 0.00 0.00 32 1014.2
20260507150812 75 41 0.0 0.0 0.00 0.00 0.00 31 1014.2
20260507150309 74 44 0.0 0.0 0.00 0.00 0.00 32 1014.1
20260507145805 73 42 0.0 1.0 0.00 0.00 0.00 33 1014.2
20260507145301 72 105 2.0 2.0 0.00 0.00 0.00 34 1014.1
20260507144759 71 60 1.0 1.0 0.00 0.00 0.00 34 1014.1
20260507144256 70 75 1.0 1.0 0.00 0.00 0.00 36 1014.2
20260507143752 70 60 2.0 2.0 0.00 0.00 0.00 36 1014.3
20260507143250 69 58 0.0 1.0 0.00 0.00 0.00 37 1014.3
20260507142745 68 57 1.0 2.0 0.00 0.00 0.00 39 1014.1
20260507142242 68 57 1.0 1.0 0.00 0.00 0.00 39 1014.1
20260507141739 68 49 1.0 2.0 0.00 0.00 0.00 40 1014.2
20260507141236 69 91 1.0 2.0 0.00 0.00 0.00 40 1014.3
20260507140732 68 53 1.0 1.0 0.00 0.00 0.00 42 1014.2
20260507140230 67 49 0.0 0.0 0.00 0.00 0.00 43 1014.2
20260507135726 67 58 1.0 1.0 0.00 0.00 0.00 44 1014.1
20260507135224 66 43 0.0 1.0 0.00 0.00 0.00 47 1014.0
20260507134720 65 54 1.0 1.0 0.00 0.00 0.00 47 1014.0
20260507134216 64 85 1.0 1.0 0.00 0.00 0.00 49 1013.9
20260507133712 62 63 1.0 1.0 0.00 0.00 0.00 51 1013.8
20260507133209 62 36 0.0 0.0 0.00 0.00 0.00 52 1013.7
20260507132707 60 32 0.0 0.0 0.00 0.00 0.00 55 1013.4
20260507132203 60 31 0.0 0.0 0.00 0.00 0.00 53 1013.5
20260507131700 60 34 0.0 0.0 0.00 0.00 0.00 53 1013.4
20260507131158 59 26 0.0 0.0 0.00 0.00 0.00 55 1013.4
20260507130654 59 25 0.0 0.0 0.00 0.00 0.00 55 1013.5
20260507130152 59 24 0.0 0.0 0.00 0.00 0.00 55 1013.3
20260507125650 59 38 0.0 0.0 0.00 0.00 0.00 56 1013.3
20260507125148 59 26 0.0 0.0 0.00 0.00 0.00 56 1013.4
20260507124643 59 25 0.0 0.0 0.00 0.00 0.00 55 1013.3
20260507124141 59 22 0.0 0.0 0.00 0.00 0.00 56 1013.3
20260507123639 59 37 0.0 0.0 0.00 0.00 0.00 55 1013.5
20260507123136 59 39 0.0 0.0 0.00 0.00 0.00 56 1013.5
20260507122631 60 38 0.0 0.0 0.00 0.00 0.00 54 1013.5
20260507122127 60 69 1.0 1.0 0.00 0.00 0.00 53 1013.5
20260507121624 60 80 1.0 2.0 0.00 0.00 0.00 53 1013.3
20260507121120 60 27 0.0 0.0 0.00 0.00 0.00 53 1013.4
20260507120616 60 26 0.0 0.0 0.00 0.00 0.00 52 1013.0
20260507120113 60 22 0.0 0.0 0.00 0.00 0.00 54 1013.3
20260507115609 60 27 0.0 0.0 0.00 0.00 0.00 53 1013.2
20260507115105 60 22 0.0 0.0 0.00 0.00 0.00 53 1013.2
20260507114601 60 24 0.0 0.0 0.00 0.00 0.00 53 1013.2
20260507114058 60 23 0.0 0.0 0.00 0.00 0.00 53 1013.2
20260507113555 60 21 0.0 0.0 0.00 0.00 0.00 54 1013.3
20260507113052 60 18 0.0 0.0 0.00 0.00 0.00 54 1013.3
20260507112550 60 27 0.0 0.0 0.00 0.00 0.00 56 1013.6
20260507112047 60 27 0.0 0.0 0.00 0.00 0.00 55 1013.4
20260507111544 60 51 0.0 0.0 0.00 0.00 0.00 57 1013.3
20260507111041 60 46 0.0 0.0 0.00 0.00 0.00 56 1013.3
20260507110537 60 36 0.0 0.0 0.00 0.00 0.00 57 1013.3
20260507110033 60 40 0.0 0.0 0.00 0.00 0.00 58 1013.2
20260507105531 59 36 0.0 0.0 0.00 0.00 0.00 59 1013.2
20260507105026 59 31 0.0 0.0 0.00 0.00 0.00 58 1013.4
20260507104524 60 33 0.0 0.0 0.00 0.00 0.00 58 1013.4
20260507104020 60 34 0.0 0.0 0.00 0.00 0.00 57 1013.4
20260507103517 61 34 0.0 0.0 0.00 0.00 0.00 56 1013.5
20260507103013 61 40 0.0 0.0 0.00 0.00 0.00 55 1013.5
20260507102510 61 41 0.0 0.0 0.00 0.00 0.00 54 1013.5
20260507102007 61 39 0.0 0.0 0.00 0.00 0.00 54 1013.5
20260507101501 61 40 0.0 0.0 0.00 0.00 0.00 54 1013.6
20260507100958 61 34 0.0 0.0 0.00 0.00 0.00 55 1013.6
20260507100455 61 35 0.0 0.0 0.00 0.00 0.00 54 1013.8
20260507095954 61 53 0.0 0.0 0.00 0.00 0.00 55 1013.6
20260507095451 60 35 0.0 0.0 0.00 0.00 0.00 55 1013.6
20260507094948 61 29 0.0 0.0 0.00 0.00 0.00 55 1013.7
20260507094444 61 29 0.0 0.0 0.00 0.00 0.00 54 1013.8
20260507093941 61 33 0.0 0.0 0.00 0.00 0.00 54 1013.8
20260507093439 61 29 0.0 0.0 0.00 0.00 0.00 54 1013.9
20260507092937 61 28 0.0 0.0 0.00 0.00 0.00 53 1014.0
20260507092433 61 32 0.0 0.0 0.00 0.00 0.00 54 1013.8
20260507091930 62 29 0.0 0.0 0.00 0.00 0.00 51 1013.9
20260507091426 63 30 0.0 0.0 0.00 0.00 0.00 51 1014.0
20260507090922 63 38 0.0 0.0 0.00 0.00 0.00 48 1014.0
20260507090418 64 44 0.0 0.0 0.00 0.00 0.00 47 1014.0
20260507085915 64 39 0.0 0.0 0.00 0.00 0.00 47 1014.1
20260507085412 63 42 0.0 0.0 0.00 0.00 0.00 46 1014.2
20260507084909 63 38 0.0 0.0 0.00 0.00 0.00 47 1014.3
20260507084406 64 36 0.0 0.0 0.00 0.00 0.00 46 1014.3
20260507083903 64 36 0.0 0.0 0.00 0.00 0.00 46 1014.2
20260507083359 64 50 0.0 1.0 0.00 0.00 0.00 46 1014.1
20260507082855 64 41 0.0 0.0 0.00 0.00 0.00 47 1014.3
20260507082351 64 34 0.0 0.0 0.00 0.00 0.00 48 1014.3
20260507081849 64 38 0.0 0.0 0.00 0.00 0.00 47 1014.1
20260507081345 64 32 0.0 0.0 0.00 0.00 0.00 48 1014.2
20260507080842 65 32 0.0 0.0 0.00 0.00 0.00 47 1014.1
20260507080338 65 37 0.0 0.0 0.00 0.00 0.00 46 1014.3
20260507075833 65 38 0.0 0.0 0.00 0.00 0.00 46 1014.3
20260507075329 64 40 0.0 0.0 0.00 0.00 0.00 46 1014.2
20260507074826 65 31 0.0 0.0 0.00 0.00 0.00 46 1014.3
20260507074324 64 26 0.0 0.0 0.00 0.00 0.00 47 1014.4
20260507073821 65 25 0.0 0.0 0.00 0.00 0.00 47 1014.5
20260507073317 65 23 0.0 0.0 0.00 0.00 0.00 46 1014.2
20260507072815 64 29 0.0 0.0 0.00 0.00 0.00 47 1014.3
20260507072312 64 33 0.0 0.0 0.00 0.00 0.00 47 1014.2
20260507071809 65 34 0.0 0.0 0.00 0.00 0.00 47 1014.3
20260507071306 66 36 0.0 0.0 0.00 0.00 0.00 45 1014.2
20260507070802 66 36 0.0 0.0 0.00 0.00 0.00 44 1014.5
20260507070300 66 41 0.0 0.0 0.00 0.00 0.00 43 1014.5
20260507065756 66 37 0.0 0.0 0.00 0.00 0.00 44 1014.3
20260507065253 66 33 0.0 0.0 0.00 0.00 0.00 44 1014.4
20260507064750 66 34 0.0 0.0 0.00 0.00 0.00 44 1014.4
20260507064249 67 33 0.0 0.0 0.00 0.00 0.00 43 1014.3
20260507063746 67 31 0.0 0.0 0.00 0.00 0.00 41 1014.5
20260507063243 66 35 0.0 0.0 0.00 0.00 0.00 41 1014.2
20260507062740 66 33 0.0 0.0 0.00 0.00 0.00 41 1014.3
20260507062237 66 34 0.0 0.0 0.00 0.00 0.00 44 1014.3
20260507061735 67 34 0.0 0.0 0.00 0.00 0.00 41 1014.3
20260507061232 68 36 0.0 0.0 0.00 0.00 0.00 40 1014.2
20260507060731 68 38 0.0 0.0 0.00 0.00 0.00 40 1014.4
20260507060227 68 37 0.0 0.0 0.00 0.00 0.00 41 1014.3
20260507055723 67 33 0.0 0.0 0.00 0.00 0.00 40 1014.2
20260507055219 68 34 0.0 0.0 0.00 0.00 0.00 40 1014.1
20260507054715 68 37 0.0 0.0 0.00 0.00 0.00 41 1014.3
20260507054212 68 33 0.0 0.0 0.00 0.00 0.00 40 1014.3
20260507053710 68 33 0.0 0.0 0.00 0.00 0.00 40 1014.1
20260507053207 68 33 0.0 0.0 0.00 0.00 0.00 39 1014.1
20260507052706 69 33 0.0 0.0 0.00 0.00 0.00 39 1014.3
20260507052202 69 33 0.0 0.0 0.00 0.00 0.00 41 1014.2
20260507051700 69 34 0.0 0.0 0.00 0.00 0.00 39 1014.2
20260507051156 70 34 0.0 0.0 0.00 0.00 0.00 39 1014.1
20260507050653 70 34 0.0 0.0 0.00 0.00 0.00 38 1014.1
20260507050150 70 33 0.0 0.0 0.00 0.00 0.00 38 1014.0
20260507045647 69 33 0.0 0.0 0.00 0.00 0.00 37 1014.1
20260507045143 70 34 0.0 0.0 0.00 0.00 0.00 36 1014.0
20260507044640 71 38 0.0 0.0 0.00 0.00 0.00 36 1014.0
20260507044137 70 44 0.0 0.0 0.00 0.00 0.00 37 1013.9
20260507043633 70 32 0.0 0.0 0.00 0.00 0.00 39 1013.9
20260507043130 71 32 0.0 0.0 0.00 0.00 0.00 35 1013.9
20260507042626 72 34 0.0 0.0 0.00 0.00 0.00 34 1013.9
20260507042121 72 44 0.0 0.0 0.00 0.00 0.00 33 1014.0
20260507041618 72 36 0.0 0.0 0.00 0.00 0.00 34 1013.9
20260507041115 72 36 0.0 0.0 0.00 0.00 0.00 35 1013.8
20260507040612 73 37 0.0 0.0 0.00 0.00 0.00 33 1013.8
20260507040109 73 38 0.0 0.0 0.00 0.00 0.00 32 1013.7
20260507035605 73 32 0.0 0.0 0.00 0.00 0.00 31 1013.8
20260507035101 73 32 0.0 0.0 0.00 0.00 0.00 30 1013.5
20260507034558 74 32 0.0 0.0 0.00 0.00 0.00 30 1013.5
20260507034056 74 29 0.0 0.0 0.00 0.00 0.00 29 1013.6
20260507033554 74 32 0.0 0.0 0.00 0.00 0.00 30 1013.3
20260507033050 74 36 0.0 0.0 0.00 0.00 0.00 30 1013.4
20260507032547 74 42 0.0 0.0 0.00 0.00 0.00 29 1013.4
20260507032044 75 27 0.0 0.0 0.00 0.00 0.00 29 1013.0
20260507031540 75 32 0.0 0.0 0.00 0.00 0.00 29 1013.2
20260507031038 76 30 0.0 0.0 0.00 0.00 0.00 28 1013.0
20260507030534 76 6 0.0 0.0 0.00 0.00 0.00 28 1013.0
20260507030032 77 26 0.0 0.0 0.00 0.00 0.00 27 1013.0
20260507025528 77 6 0.0 1.0 0.00 0.00 0.00 27 1013.0
20260507025026 77 20 0.0 0.0 0.00 0.00 0.00 27 1013.0
20260507024524 78 36 0.0 0.0 0.00 0.00 0.00 26 1012.8
20260507024020 78 303 1.0 2.0 0.00 0.00 0.00 26 1012.7
20260507023516 78 7 0.0 1.0 0.00 0.00 0.00 25 1012.8
20260507023014 79 14 1.0 1.0 0.00 0.00 0.00 25 1012.7
20260507022511 79 344 0.0 1.0 0.00 0.00 0.00 25 1012.7
20260507022006 79 320 1.0 1.0 0.00 0.00 0.00 25 1012.6
20260507021502 80 28 0.0 0.0 0.00 0.00 0.00 25 1012.5
20260507020959 80 336 1.0 1.0 0.00 0.00 0.00 24 1012.5
20260507020456 80 261 1.0 2.0 0.00 0.00 0.00 24 1012.4
20260507015953 80 3 1.0 1.0 0.00 0.00 0.00 24 1012.4
20260507015451 80 336 0.0 1.0 0.00 0.00 0.00 24 1012.4
20260507014948 81 27 0.0 0.0 0.00 0.00 0.00 24 1012.3
20260507014444 81 16 0.0 1.0 0.00 0.00 0.00 24 1012.4
20260507013940 81 319 2.0 3.0 0.00 0.00 0.00 24 1012.4
20260507013438 82 314 2.0 2.0 0.00 0.00 0.00 23 1012.5
20260507012935 82 22 0.0 1.0 0.00 0.00 0.00 23 1012.4
20260507012432 82 15 0.0 0.0 0.00 0.00 0.00 24 1012.5
20260507011928 82 7 1.0 2.0 0.00 0.00 0.00 24 1012.4
20260507011426 82 313 1.0 1.0 0.00 0.00 0.00 23 1012.4
20260507010925 82 271 1.0 2.0 0.00 0.00 0.00 23 1012.4
20260507010421 84 272 4.0 4.0 0.00 0.00 0.00 23 1012.3
20260507005918 85 28 1.0 2.0 0.00 0.00 0.00 22 1012.3
20260507005415 85 345 1.0 1.0 0.00 0.00 0.00 22 1012.6
20260507004911 85 52 1.0 1.0 0.00 0.00 0.00 22 1012.4
20260507004408 85 25 0.0 0.0 0.00 0.00 0.00 21 1012.4
20260507003906 86 7 1.0 2.0 0.00 0.00 0.00 22 1012.4
20260507003401 86 325 1.0 2.0 0.00 0.00 0.00 21 1012.5
20260507002856 85 46 0.0 0.0 0.00 0.00 0.00 22 1012.3
20260507002353 84 1 1.0 2.0 0.00 0.00 0.00 22 1012.4
20260507001850 84 327 2.0 3.0 0.00 0.00 0.00 23 1012.3
20260507001347 86 266 3.0 3.0 0.00 0.00 0.00 22 1012.3
20260507000843 88 324 4.0 6.0 0.00 0.00 0.00 21 1012.5
20260507000339 87 22 0.0 0.0 0.00 0.00 0.00 22 1012.4
20260506235835 85 12 1.0 1.0 0.00 0.00 0.00 22 1012.5
20260506235332 87 275 4.0 6.0 0.00 0.00 0.00 21 1012.4
20260506234828 86 10 0.0 0.0 0.00 0.00 0.00 21 1012.3
20260506234326 85 348 2.0 2.0 0.00 0.00 0.00 21 1012.4
20260506233824 85 8 1.0 2.0 0.00 0.00 0.00 22 1012.5
20260506233319 85 19 0.0 1.0 0.00 0.00 0.00 23 1012.4
20260506232817 85 334 1.0 2.0 0.00 0.00 0.00 22 1012.5
20260506232312 85 28 0.0 1.0 0.00 0.00 0.00 22 1012.5
20260506231809 85 334 1.0 1.0 0.00 0.00 0.00 22 1012.7
20260506231307 84 11 0.0 0.0 0.00 0.00 0.00 22 1012.5
20260506230804 85 307 1.0 2.0 0.00 0.00 0.00 23 1012.6
20260506230300 84 80 2.0 2.0 0.00 0.00 0.00 22 1012.7
20260506225757 85 304 1.0 2.0 0.00 0.00 0.00 22 1012.8
20260506225254 84 341 2.0 3.0 0.00 0.00 0.00 22 1012.9
20260506224750 85 13 0.0 0.0 0.00 0.00 0.00 22 1013.2
20260506224248 85 18 1.0 2.0 0.00 0.00 0.00 22 1013.3
20260506223744 85 337 2.0 2.0 0.00 0.00 0.00 22 1013.2
20260506223240 85 353 2.0 2.0 0.00 0.00 0.00 23 1013.3
20260506222737 84 7 1.0 2.0 0.00 0.00 0.00 22 1013.3
20260506222232 85 292 4.0 4.0 0.00 0.00 0.00 22 1013.4
20260506221731 84 284 2.0 2.0 0.00 0.00 0.00 23 1013.3
20260506221228 85 358 1.0 2.0 0.00 0.00 0.00 23 1013.5
20260506220725 84 14 2.0 2.0 0.00 0.00 0.00 23 1013.6
20260506220220 85 343 1.0 1.0 0.00 0.00 0.00 24 1013.6
20260506215717 85 357 1.0 1.0 0.00 0.00 0.00 24 1013.6
20260506215213 84 348 1.0 1.0 0.00 0.00 0.00 23 1013.7
20260506214709 84 289 2.0 3.0 0.00 0.00 0.00 24 1013.7
20260506214206 86 330 2.0 3.0 0.00 0.00 0.00 22 1013.8
20260506213705 86 8 0.0 0.0 0.00 0.00 0.00 23 1014.0
20260506213202 85 10 0.0 1.0 0.00 0.00 0.00 23 1014.0
20260506212659 83 269 3.0 3.0 0.00 0.00 0.00 23 1014.1
20260506212154 85 341 2.0 2.0 0.00 0.00 0.00 24 1014.1
20260506211650 86 28 1.0 1.0 0.00 0.00 0.00 24 1014.4
20260506211146 85 28 0.0 0.0 0.00 0.00 0.00 23 1014.3
20260506210643 86 33 1.0 1.0 0.00 0.00 0.00 24 1014.4
20260506210140 83 27 0.0 1.0 0.00 0.00 0.00 24 1014.3
20260506205637 82 310 1.0 2.0 0.00 0.00 0.00 25 1014.6
20260506205132 82 329 2.0 2.0 0.00 0.00 0.00 25 1014.6
20260506204630 81 38 1.0 1.0 0.00 0.00 0.00 24 1014.5
20260506204127 80 46 1.0 2.0 0.00 0.00 0.00 25 1014.8
20260506203625 82 243 2.0 3.0 0.00 0.00 0.00 25 1014.7
20260506203121 81 34 2.0 2.0 0.00 0.00 0.00 25 1014.9
20260506202619 82 26 0.0 1.0 0.00 0.00 0.00 25 1014.8
20260506202115 83 325 1.0 2.0 0.00 0.00 0.00 25 1014.7
20260506201613 82 285 4.0 6.0 0.00 0.00 0.00 24 1014.9
20260506201109 81 32 1.0 1.0 0.00 0.00 0.00 26 1014.7
20260506200606 81 43 1.0 2.0 0.00 0.00 0.00 24 1014.9
20260506195559 83 25 0.0 0.0 0.00 0.00 0.00 27 1015.0
20260506195055 82 38 0.0 0.0 0.00 0.00 0.00 25 1015.0
20260506194553 82 20 0.0 1.0 0.00 0.00 0.00 26 1015.3
20260506194049 81 1 1.0 2.0 0.00 0.00 0.00 26 1015.2
20260506193547 80 11 0.0 1.0 0.00 0.00 0.00 26 1015.2
20260506193044 79 26 0.0 1.0 0.00 0.00 0.00 28 1015.3
20260506192541 78 167 1.0 1.0 0.00 0.00 0.00 27 1015.4
20260506192037 78 291 2.0 2.0 0.00 0.00 0.00 27 1015.5
20260506191534 79 284 4.0 6.0 0.00 0.00 0.00 26 1015.7
20260506191029 77 314 2.0 3.0 0.00 0.00 0.00 28 1015.5
20260506190527 79 337 2.0 2.0 0.00 0.00 0.00 27 1015.5
20260506190024 78 20 1.0 1.0 0.00 0.00 0.00 29 1015.5
20260506185521 77 257 3.0 3.0 0.00 0.00 0.00 28 1015.7
20260506185017 77 357 1.0 2.0 0.00 0.00 0.00 30 1016.1
20260506184515 78 99 1.0 1.0 0.00 0.00 0.00 28 1016.1
20260506184012 79 8 1.0 2.0 0.00 0.00 0.00 28 1015.9
20260506183508 79 45 1.0 1.0 0.00 0.00 0.00 28 1016.0
20260506183005 77 61 1.0 1.0 0.00 0.00 0.00 30 1016.1
20260506182502 77 12 0.0 1.0 0.00 0.00 0.00 29 1016.3